Weather in Aleshki

Russia / Voronezh Oblast     51°37′33″N   41°46′10″E
temp.,
°C
wind,
m/s
gust,
m/s
humid.,
%
clouds,
%
prec.,
mm/h
press.,
hPa
HPBL,
m
27 february, sat
sat2700:00+2wnw61296100 0.1 1007399
03:00+1w61394100 0.1 1007394
06:00+1w71495100 0.0 1006582
09:00+1wnw71396100 0.1 1006687
12:00+1w7139898 0.0 1005729
15:00+1wnw8159398 0.1 1006801
18:00−2nnw8148699 0.5 1007835
21:00−7nnw5109094 0.5 1010514
28 february, sun
sun2800:00−8nnw489372 0.0 1012386
03:00−9nw379550 0.0 1014248
06:00−10nw37930 0.0 1014257
09:00−8nw469218 0.0 1015332
12:00−5nw358891 0.0 1015525
15:00−4nw468795 0.1 1015556
18:00−5nw2595100 0.1 1016261
21:00−6n259593 0.1 1018179
1 march, mon
mon100:00−8nne249485 0.0 1019142
03:00−10nne239457 0.0 102154
06:00−11n23930 0.0 102372
09:00−9n23900 0.0 1025181
12:00−7nnw238444 0.0 1026394
15:00−5nw238471 0.0 1026460
18:00−7w239274 0.0 102524
21:00−7wsw359451 0.0 102684
2 march, tue
tue200:00−6wsw5109175 0.0 1024263
03:00−4wsw6139387 0.0 1021410
06:00−3wsw71591100 0.0 1017497
09:00−2wsw91696100 0.8 1013661
12:000w81499100 2.4 1010749
15:000nw71297100 2.9 1010699
18:00−1nw6139198 0.1 1010653
21:00−2wnw6139080 0.2 1012434
3 march, wed
wed300:00−2wnw6129288 0.1 1012482
03:00−3nw6129594 0.2 1012501
06:00−3nw6129495 0.2 1012556
09:00−3nw7119197 0.3 1013840
12:00−2nnw71183100 0.1 10151234
15:00−2nw8118199 0.3 10161127
18:00−4nw61386100 0.1 1017726
21:00−5nw4119170 0.1 1020293